Weather History for Rutland, VT

Change the Weather History Date:

Wednesday, November 21, 2012

  Actual Average Record
Temperature  
Mean Temperature 40 °F -  
Max Temperature 52 °F - 70 °F (1991)
Min Temperature 28 °F - 8 °F (1951)
Degree Days  
Heating Degree Days 25    
Month to date heating degree days 581  
Since 1 July heating degree days 1216  
Cooling Degree Days 0    
Month to date cooling degree days 0  
Year to date cooling degree days 411  
Moisture  
Dew Point 26 °F    
Average Humidity 62    
Maximum Humidity 92    
Minimum Humidity 32    
Precipitation  
Precipitation 0.00 in - 1.20 in (1954)
Month to date precipitation 0.37  
Year to date precipitation 21.85  
Sea Level Pressure  
Sea Level Pressure 30.20 in    
Wind  
Wind Speed 2 mph (SSW)    
Max Wind Speed 6 mph    
Max Gust Speed -    
Visibility 10 miles    
Events      
T = Trace of Precipitation, MM = Missing Value Source: NWS Daily Summary

Daily Weather History Graph

Daily Weather History Graph

Search for Another Location

Airport:

Trip Planner

Search our weather history database for the weather conditions in past years. The results will help you decide how hot, cold, wet, or windy it might be!

Date:

Astronomy

Nov. 21, 2012 Rise Set
Actual Time 6:53 AM EST 4:21 PM EST
Civil Twilight 6:22 AM EST 4:52 PM EST
Nautical Twilight 5:47 AM EST 5:27 PM EST
Astronomical Twilight 5:13 AM EST 6:02 PM EST
Moon 12:47 PM EST (11/21) No Moon Set
Length of Visible Light 10h 30m
Length of Day
9h 27m
First Quarter, 61% of the Moon is Illuminated
Nov 21
First Quarter
Nov 28
Full
Dec 6
Last Quarter
Dec 13
New
Dec 20
First Quarter

Hourly Weather History & Observations

Time (EST) Temp. Windchill Dew Point Humidity Pressure Visibility Wind Dir Wind Speed Gust Speed Precip Events Conditions
12:15 AM 28.4 °F 24.6 °F 24.8 °F 86% 30.17 in 10.0 mi SSE 3.5 mph - N/A   Clear
12:35 AM 30.2 °F - 26.6 °F 86% 30.16 in 10.0 mi Calm Calm - N/A   Clear
12:55 AM 30.2 °F - 24.8 °F 80% 30.17 in 10.0 mi Calm Calm - N/A   Clear
1:15 AM 28.4 °F 24.6 °F 24.8 °F 86% 30.17 in 10.0 mi ENE 3.5 mph - N/A   Clear
1:35 AM 30.2 °F - 24.8 °F 80% 30.17 in 10.0 mi Calm Calm - N/A   Clear
1:55 AM 30.2 °F - 26.6 °F 86% 30.17 in 10.0 mi Calm Calm - N/A   Clear
2:15 AM 30.2 °F 26.7 °F 24.8 °F 80% 30.18 in 10.0 mi SSE 3.5 mph - N/A   Clear
2:35 AM 30.2 °F 26.7 °F 26.6 °F 86% 30.17 in 10.0 mi SE 3.5 mph - N/A   Partly Cloudy
2:55 AM 32.0 °F - 24.8 °F 75% 30.17 in 10.0 mi Calm Calm - N/A   Mostly Cloudy
3:15 AM 30.2 °F - 26.6 °F 86% 30.17 in 10.0 mi Calm Calm - N/A   Mostly Cloudy
3:35 AM 30.2 °F - 26.6 °F 86% 30.18 in 10.0 mi Calm Calm - N/A   Partly Cloudy
3:55 AM 30.2 °F - 26.6 °F 86% 30.18 in 10.0 mi Calm Calm - N/A   Mostly Cloudy
4:15 AM 30.2 °F - 26.6 °F 86% 30.18 in 10.0 mi Calm Calm - N/A   Scattered Clouds
4:35 AM 30.2 °F - 26.6 °F 86% 30.17 in 10.0 mi Calm Calm - N/A   Partly Cloudy
4:55 AM 28.4 °F 22.2 °F 24.8 °F 86% 30.18 in 10.0 mi SSW 5.8 mph - N/A   Clear
5:15 AM 30.2 °F 26.7 °F 26.6 °F 86% 30.18 in 10.0 mi ESE 3.5 mph - N/A   Clear
5:35 AM 30.2 °F 26.7 °F 26.6 °F 86% 30.18 in 10.0 mi WSW 3.5 mph - N/A   Clear
5:55 AM 30.2 °F 26.7 °F 26.6 °F 86% 30.19 in 10.0 mi South 3.5 mph - N/A   Clear
6:15 AM 30.2 °F 26.7 °F 26.6 °F 86% 30.19 in 10.0 mi SSE 3.5 mph - N/A   Clear
6:35 AM 30.2 °F 26.7 °F 26.6 °F 86% 30.20 in 10.0 mi SSW 3.5 mph - N/A   Scattered Clouds
6:55 AM 30.2 °F - 26.6 °F 86% 30.21 in 10.0 mi Calm Calm - N/A   Overcast
7:15 AM 30.2 °F - 26.6 °F 86% 30.22 in 10.0 mi Calm Calm - N/A   Overcast
7:35 AM 30.2 °F 26.7 °F 26.6 °F 86% 30.23 in 10.0 mi WNW 3.5 mph - N/A   Mostly Cloudy
7:55 AM 28.4 °F - 26.6 °F 93% 30.24 in 10.0 mi Calm Calm - N/A   Clear
8:15 AM 28.4 °F 24.6 °F 26.6 °F 93% 30.25 in 10.0 mi NNE 3.5 mph - N/A   Partly Cloudy
8:35 AM 30.2 °F - 28.4 °F 93% 30.25 in 10.0 mi Calm Calm - N/A   Mostly Cloudy
8:55 AM 33.8 °F - 28.4 °F 81% 30.25 in 10.0 mi Calm Calm - N/A   Mostly Cloudy
9:15 AM 33.8 °F - 28.4 °F 81% 30.25 in 10.0 mi Calm Calm - N/A   Mostly Cloudy
9:35 AM 35.6 °F 30.7 °F 26.6 °F 70% 30.24 in 10.0 mi South 5.8 mph - N/A   Overcast
9:55 AM 37.4 °F 33.8 °F 26.6 °F 65% 30.24 in 10.0 mi SSW 4.6 mph - N/A   Scattered Clouds
10:15 AM 41.0 °F 38.0 °F 24.8 °F 53% 30.23 in 10.0 mi SSW 4.6 mph - N/A   Partly Cloudy
10:35 AM 42.8 °F 40.1 °F 24.8 °F 49% 30.22 in 10.0 mi SW 4.6 mph - N/A   Clear
10:55 AM 44.6 °F 43.1 °F 24.8 °F 46% 30.22 in 10.0 mi SSE 3.5 mph - N/A   Clear
11:15 AM 46.4 °F 45.2 °F 23.0 °F 40% 30.21 in 10.0 mi SSW 3.5 mph - N/A   Clear
11:35 AM 46.4 °F 44.3 °F 24.8 °F 43% 30.20 in 10.0 mi WSW 4.6 mph - N/A   Clear
11:55 AM 48.2 °F - 24.8 °F 40% 30.20 in 10.0 mi SW 3.5 mph - N/A   Clear
12:15 PM 48.2 °F - 23.0 °F 37% 30.19 in 10.0 mi West 4.6 mph - N/A   Clear
12:35 PM 50.0 °F - 21.2 °F 32% 30.19 in 10.0 mi Calm Calm - N/A   Clear
12:55 PM 50.0 °F - 21.2 °F 32% 30.18 in 10.0 mi SSW 4.6 mph - N/A   Clear
1:15 PM 50.0 °F - 21.2 °F 32% 30.18 in 10.0 mi SSW 4.6 mph - N/A   Clear
1:35 PM 51.8 °F - 21.2 °F 30% 30.18 in 10.0 mi WSW 4.6 mph - N/A   Clear